Hourly Weather Klaskawa

Today, 29 July, Thursday

Time Temperature Precipitation Wind Pressure Humidity
00:00 +18°C° 0.1 mm 2 mps 746 mmHg 91%
01:00 +18°C° 0 mm 2 mps 746 mmHg 92%
02:00 +17°C° 0 mm 2 mps 746 mmHg 93%
03:00 +17°C° 0 mm 2 mps 746 mmHg 93%
04:00 +16°C° 0 mm 2 mps 746 mmHg 93%
05:00 +17°C° 0 mm 3 mps 746 mmHg 88%
06:00 +19°C° 0 mm 3 mps 746 mmHg 83%
07:00 +20°C° 0 mm 3 mps 746 mmHg 78%
08:00 +21°C° 0 mm 4 mps 746 mmHg 69%
09:00 +23°C° 0 mm 4 mps 746 mmHg 60%
10:00 +25°C° 0 mm 5 mps 746 mmHg 51%
11:00 +25°C° 0 mm 5 mps 746 mmHg 50%
12:00 +25°C° 0 mm 5 mps 745 mmHg 49%
13:00 +25°C° 0 mm 5 mps 745 mmHg 48%
14:00 +25°C° 0 mm 5 mps 745 mmHg 48%
15:00 +25°C° 0 mm 5 mps 745 mmHg 47%
16:00 +23°C° 0 mm 5 mps 745 mmHg 47%
17:00 +22°C° 0.1 mm 5 mps 745 mmHg 53%
18:00 +21°C° 0.1 mm 4 mps 745 mmHg 58%
19:00 +20°C° 0.1 mm 3 mps 745 mmHg 64%
20:00 +18°C° 0 mm 3 mps 746 mmHg 67%
21:00 +17°C° 0 mm 3 mps 746 mmHg 70%
22:00 +16°C° 0 mm 3 mps 746 mmHg 73%
23:00 +16°C° 0 mm 3 mps 746 mmHg 72%

Tomorrow, 30 July, Friday

Time Temperature Precipitation Wind Pressure Humidity
00:00 +16°C° 0 mm 3 mps 746 mmHg 71%
01:00 +16°C° 0 mm 3 mps 746 mmHg 70%
02:00 +14°C° 0 mm 3 mps 746 mmHg 71%
03:00 +14°C° 0 mm 3 mps 745 mmHg 72%
04:00 +13°C° 0 mm 3 mps 745 mmHg 73%
05:00 +14°C° 0 mm 4 mps 745 mmHg 69%
06:00 +16°C° 0 mm 5 mps 745 mmHg 65%
07:00 +17°C° 0 mm 6 mps 745 mmHg 60%
08:00 +19°C° 0 mm 6 mps 745 mmHg 54%
09:00 +20°C° 0 mm 7 mps 745 mmHg 47%
10:00 +22°C° 0 mm 7 mps 745 mmHg 40%
11:00 +23°C° 0 mm 7 mps 744 mmHg 38%
12:00 +23°C° 0 mm 7 mps 744 mmHg 36%
13:00 +24°C° 0 mm 7 mps 744 mmHg 33%
14:00 +26°C° 0 mm 7 mps 744 mmHg 34%
15:00 +26°C° 0 mm 7 mps 744 mmHg 34%
16:00 +26°C° 0 mm 6 mps 743 mmHg 34%
17:00 +24°C° 0 mm 6 mps 743 mmHg 39%
18:00 +23°C° 0 mm 5 mps 743 mmHg 43%
19:00 +21°C° 0 mm 4 mps 743 mmHg 48%
20:00 +20°C° 0 mm 3 mps 744 mmHg 53%
21:00 +19°C° 0 mm 3 mps 744 mmHg 59%
22:00 +17°C° 0 mm 3 mps 744 mmHg 64%
23:00 +17°C° 0 mm 2 mps 744 mmHg 67%

Day after tomorrow, 31 July, Saturday

Time Temperature Precipitation Wind Pressure Humidity
00:00 +16°C° 0 mm 2 mps 744 mmHg 69%
01:00 +16°C° 0 mm 2 mps 744 mmHg 72%
02:00 +15°C° 0 mm 2 mps 744 mmHg 72%
03:00 +15°C° 0 mm 2 mps 743 mmHg 73%
04:00 +15°C° 0 mm 2 mps 743 mmHg 73%
05:00 +17°C° 0 mm 3 mps 743 mmHg 69%
06:00 +18°C° 0 mm 3 mps 743 mmHg 64%
07:00 +20°C° 0 mm 3 mps 743 mmHg 60%
08:00 +21°C° 0 mm 4 mps 743 mmHg 56%
09:00 +23°C° 0 mm 4 mps 743 mmHg 53%
10:00 +25°C° 0 mm 5 mps 743 mmHg 49%
11:00 +26°C° 0.2 mm 5 mps 743 mmHg 48%
12:00 +26°C° 0.2 mm 5 mps 742 mmHg 48%
13:00 +27°C° 0.2 mm 5 mps 742 mmHg 47%
14:00 +27°C° 0 mm 6 mps 742 mmHg 42%
15:00 +28°C° 0 mm 6 mps 741 mmHg 37%
16:00 +28°C° 0 mm 6 mps 741 mmHg 32%
17:00 +26°C° 0 mm 6 mps 741 mmHg 39%
18:00 +23°C° 0 mm 6 mps 742 mmHg 45%
19:00 +22°C° 0 mm 5 mps 742 mmHg 52%
20:00 +20°C° 0 mm 5 mps 742 mmHg 55%
21:00 +19°C° 0 mm 5 mps 743 mmHg 57%
22:00 +17°C° 0 mm 5 mps 743 mmHg 60%
23:00 +18°C° 0 mm 4 mps 743 mmHg 65%

1 August, Sunday

Time Temperature Precipitation Wind Pressure Humidity
00:00 +17°C° 0 mm 4 mps 743 mmHg 70%
01:00 +17°C° 0 mm 4 mps 743 mmHg 75%
02:00 +15°C° 0 mm 4 mps 743 mmHg 79%
03:00 +15°C° 0 mm 4 mps 743 mmHg 83%
04:00 +14°C° 0 mm 4 mps 744 mmHg 87%
05:00 +15°C° 0 mm 4 mps 744 mmHg 82%
06:00 +17°C° 0 mm 4 mps 744 mmHg 77%
07:00 +17°C° 0 mm 5 mps 744 mmHg 72%
08:00 +19°C° 0 mm 5 mps 744 mmHg 64%
09:00 +20°C° 0 mm 5 mps 744 mmHg 57%
10:00 +21°C° 0 mm 5 mps 744 mmHg 49%
11:00 +22°C° 0 mm 4 mps 744 mmHg 45%
12:00 +23°C° 0 mm 4 mps 744 mmHg 42%
13:00 +25°C° 0 mm 4 mps 744 mmHg 39%
14:00 +25°C° 0 mm 4 mps 744 mmHg 39%
15:00 +25°C° 0 mm 3 mps 744 mmHg 40%
16:00 +25°C° 0 mm 3 mps 744 mmHg 40%
17:00 +22°C° 0 mm 3 mps 744 mmHg 45%
18:00 +21°C° 0 mm 3 mps 744 mmHg 50%
19:00 +20°C° 0 mm 3 mps 744 mmHg 55%
20:00 +18°C° 0 mm 2 mps 745 mmHg 62%
21:00 +17°C° 0 mm 2 mps 745 mmHg 69%
22:00 +15°C° 0 mm 2 mps 745 mmHg 76%
23:00 +15°C° 0 mm 2 mps 745 mmHg 78%

2 August, Monday

Time Temperature Precipitation Wind Pressure Humidity
00:00 +15°C° 0 mm 2 mps 745 mmHg 80%
01:00 +15°C° 0 mm 1 mps 745 mmHg 82%
02:00 +15°C° 0 mm 2 mps 745 mmHg 82%
03:00 +15°C° 0 mm 2 mps 745 mmHg 82%
04:00 +15°C° 0 mm 2 mps 745 mmHg 82%
05:00 +16°C° 0 mm 2 mps 745 mmHg 78%
06:00 +17°C° 0 mm 3 mps 745 mmHg 73%
07:00 +17°C° 0 mm 3 mps 745 mmHg 69%
08:00 +18°C° 0 mm 3 mps 746 mmHg 64%
09:00 +19°C° 0 mm 4 mps 746 mmHg 59%
10:00 +20°C° 0 mm 4 mps 746 mmHg 54%
11:00 +20°C° 0.1 mm 4 mps 746 mmHg 55%
12:00 +20°C° 0.1 mm 4 mps 746 mmHg 57%
13:00 +20°C° 0.1 mm 4 mps 746 mmHg 59%
14:00 +20°C° 0.1 mm 4 mps 746 mmHg 61%
15:00 +19°C° 0.1 mm 4 mps 746 mmHg 64%
16:00 +19°C° 0.1 mm 4 mps 747 mmHg 67%
17:00 +18°C° 0.1 mm 3 mps 747 mmHg 71%
18:00 +18°C° 0.1 mm 3 mps 747 mmHg 75%
19:00 +17°C° 0.1 mm 2 mps 746 mmHg 80%
20:00 +16°C° 0 mm 2 mps 747 mmHg 83%
21:00 +15°C° 0 mm 2 mps 747 mmHg 86%
22:00 +14°C° 0 mm 2 mps 747 mmHg 90%
23:00 +14°C° 0 mm 2 mps 747 mmHg 90%

3 August, Tuesday

Time Temperature Precipitation Wind Pressure Humidity
00:00 +14°C° 0 mm 2 mps 747 mmHg 91%
01:00 +14°C° 0 mm 2 mps 748 mmHg 91%
02:00 +13°C° 0 mm 2 mps 748 mmHg 92%
03:00 +13°C° 0 mm 2 mps 748 mmHg 92%
04:00 +13°C° 0 mm 2 mps 748 mmHg 93%
05:00 +13°C° 0 mm 3 mps 748 mmHg 86%
06:00 +15°C° 0 mm 4 mps 748 mmHg 79%
07:00 +17°C° 0 mm 4 mps 748 mmHg 72%
08:00 +18°C° 0 mm 4 mps 748 mmHg 63%
09:00 +20°C° 0 mm 5 mps 748 mmHg 54%
10:00 +22°C° 0 mm 5 mps 748 mmHg 45%
11:00 +22°C° 0 mm 5 mps 748 mmHg 41%
12:00 +23°C° 0 mm 5 mps 748 mmHg 38%
13:00 +25°C° 0 mm 5 mps 748 mmHg 34%
14:00 +25°C° 0 mm 4 mps 748 mmHg 35%
15:00 +25°C° 0 mm 4 mps 748 mmHg 35%
16:00 +25°C° 0 mm 4 mps 748 mmHg 36%
17:00 +22°C° 0 mm 3 mps 748 mmHg 42%
18:00 +21°C° 0 mm 2 mps 748 mmHg 48%
19:00 +19°C° 0 mm 2 mps 748 mmHg 55%
20:00 +18°C° 0 mm 2 mps 748 mmHg 60%
21:00 +18°C° 0 mm 1 mps 749 mmHg 66%
22:00 +15°C° 0 mm 1 mps 749 mmHg 72%
23:00 +15°C° 0 mm 1 mps 749 mmHg 72%
Show more